Station Historical Data
Daily Summary for January 13, 2017 Units:  English    Metric   Both
« Previous Day
Next Day »
Daily Weekly Monthly Yearly Custom
  High: Low: Average:
Temperature: 33.2 °F 22.3 °F 27.2 °F
Dew Point: 28.9 °F 11.6 °F 17.5 °F
Humidity: 84% 50% 67%
Wind Speed: 15.0mph 0.0mph 5mph
Wind Gust: 20.0mph - -
Wind- - WSW
Pressure: 30.79 in 30.26 in -
Precipitation: 0.00 in    
Historical Graphs
 
 
Tabular Data for January 13, 2017
Time Temperature Dew Point Pressure Wind Wind Speed Wind Gust Humidity Rainfall Rate (Hourly)
00:04 33.2 °F 28.9 °F 30.26 in SW 8.0 mph 17.0 mph 84% 0.00 in
00:09 33.2 °F 28.9 °F 30.26 in WSW 7.0 mph 13.0 mph 84% 0.00 in
00:14 33.2 °F 28.9 °F 30.27 in WSW 7.0 mph 13.0 mph 84% 0.00 in
00:19 33.2 °F 28.6 °F 30.26 in WSW 8.0 mph 14.0 mph 83% 0.00 in
00:24 33.1 °F 28.2 °F 30.26 in WNW 11.0 mph 18.0 mph 82% 0.00 in
00:29 33.1 °F 28.2 °F 30.27 in WSW 8.0 mph 18.0 mph 82% 0.00 in
00:34 33.0 °F 27.8 °F 30.27 in WSW 8.0 mph 18.0 mph 81% 0.00 in
00:39 33.0 °F 28.1 °F 30.27 in WSW 8.0 mph 18.0 mph 82% 0.00 in
00:44 33.0 °F 28.1 °F 30.27 in WSW 7.0 mph 18.0 mph 82% 0.00 in
00:49 32.8 °F 27.9 °F 30.27 in WSW 7.0 mph 14.0 mph 82% 0.00 in
00:54 32.6 °F 27.7 °F 30.28 in WNW 9.0 mph 16.0 mph 82% 0.00 in
00:59 32.4 °F 27.2 °F 30.28 in West 7.0 mph 19.0 mph 81% 0.00 in
01:09 32.0 °F 26.5 °F 30.30 in West 7.0 mph 20.0 mph 80% 0.00 in
01:14 31.7 °F 26.2 °F 30.29 in West 7.0 mph 16.0 mph 80% 0.00 in
01:19 31.5 °F 26.3 °F 30.30 in West 6.0 mph 16.0 mph 81% 0.00 in
01:24 31.3 °F 26.1 °F 30.29 in West 7.0 mph 13.0 mph 81% 0.00 in
01:29 31.2 °F 26.0 °F 30.30 in West 12.0 mph 15.0 mph 81% 0.00 in
01:34 31.0 °F 26.1 °F 30.30 in West 6.0 mph 15.0 mph 82% 0.00 in
01:39 30.9 °F 26.1 °F 30.30 in SSW 4.0 mph 12.0 mph 82% 0.00 in
01:44 30.8 °F 26.0 °F 30.31 in West 6.0 mph 14.0 mph 82% 0.00 in
01:49 30.8 °F 26.0 °F 30.32 in WSW 10.0 mph 11.0 mph 82% 0.00 in
01:54 30.7 °F 26.1 °F 30.32 in WSW 7.0 mph 12.0 mph 83% 0.00 in
01:59 30.7 °F 25.9 °F 30.33 in WSW 9.0 mph 11.0 mph 82% 0.00 in
02:04 30.6 °F 25.8 °F 30.33 in WSW 7.0 mph 15.0 mph 82% 0.00 in
02:09 30.5 °F 25.7 °F 30.33 in WSW 7.0 mph 15.0 mph 82% 0.00 in
02:14 30.5 °F 25.7 °F 30.34 in WSW 7.0 mph 16.0 mph 82% 0.00 in
02:19 30.3 °F 25.5 °F 30.35 in West 7.0 mph 16.0 mph 82% 0.00 in
02:24 30.1 °F 25.3 °F 30.36 in WSW 6.0 mph 13.0 mph 82% 0.00 in
02:29 30.1 °F 25.0 °F 30.37 in WSW 15.0 mph 18.0 mph 81% 0.00 in
02:34 29.9 °F 24.5 °F 30.36 in West 9.0 mph 16.0 mph 80% 0.00 in
02:39 29.9 °F 24.2 °F 30.37 in West 7.0 mph 16.0 mph 79% 0.00 in
02:44 29.9 °F 24.2 °F 30.37 in WSW 6.0 mph 13.0 mph 79% 0.00 in
02:49 29.8 °F 23.8 °F 30.38 in WSW 4.0 mph 14.0 mph 78% 0.00 in
02:54 29.8 °F 23.5 °F 30.38 in NW 6.0 mph 19.0 mph 77% 0.00 in
02:59 29.7 °F 23.7 °F 30.38 in WSW 6.0 mph 10.0 mph 78% 0.00 in
03:04 29.6 °F 23.6 °F 30.39 in West 7.0 mph 15.0 mph 78% 0.00 in
03:09 29.5 °F 23.2 °F 30.39 in West 7.0 mph 15.0 mph 77% 0.00 in
03:14 29.4 °F 22.8 °F 30.39 in West 7.0 mph 15.0 mph 76% 0.00 in
03:19 29.5 °F 22.6 °F 30.40 in West 8.0 mph 20.0 mph 75% 0.00 in
03:24 29.5 °F 22.6 °F 30.40 in WSW 8.0 mph 20.0 mph 75% 0.00 in
03:29 29.5 °F 22.6 °F 30.40 in WSW 8.0 mph 17.0 mph 75% 0.00 in
03:34 29.5 °F 22.6 °F 30.41 in West 8.0 mph 17.0 mph 75% 0.00 in
03:39 29.4 °F 22.1 °F 30.41 in WNW 11.0 mph 16.0 mph 74% 0.00 in
03:44 29.4 °F 22.1 °F 30.42 in SW 8.0 mph 19.0 mph 74% 0.00 in
03:49 29.3 °F 22.0 °F 30.42 in WSW 8.0 mph 14.0 mph 74% 0.00 in
03:54 29.4 °F 22.1 °F 30.42 in West 10.0 mph 14.0 mph 74% 0.00 in
03:59 29.4 °F 22.1 °F 30.42 in WNW 6.0 mph 12.0 mph 74% 0.00 in
04:04 29.3 °F 22.4 °F 30.43 in WNW 4.0 mph 10.0 mph 75% 0.00 in
04:09 29.4 °F 22.5 °F 30.44 in WSW 4.0 mph 10.0 mph 75% 0.00 in
04:14 29.3 °F 22.0 °F 30.44 in West 5.0 mph 10.0 mph 74% 0.00 in
04:19 29.4 °F 22.1 °F 30.44 in West 6.0 mph 11.0 mph 74% 0.00 in
04:24 29.4 °F 22.1 °F 30.44 in WSW 7.0 mph 14.0 mph 74% 0.00 in
04:29 29.4 °F 22.5 °F 30.45 in WSW 6.0 mph 14.0 mph 75% 0.00 in
04:34 29.4 °F 22.5 °F 30.45 in WSW 5.0 mph 12.0 mph 75% 0.00 in
04:39 29.3 °F 22.4 °F 30.45 in West 5.0 mph 13.0 mph 75% 0.00 in
04:44 29.3 °F 22.4 °F 30.45 in Calm   10.0 mph 75% 0.00 in
04:49 29.4 °F 22.5 °F 30.45 in NW 6.0 mph 10.0 mph 75% 0.00 in
04:54 29.3 °F 22.4 °F 30.45 in WSW 2.0 mph 12.0 mph 75% 0.00 in
04:59 29.3 °F 22.4 °F 30.46 in West 6.0 mph 12.0 mph 75% 0.00 in
05:04 29.3 °F 22.4 °F 30.46 in West 4.0 mph 11.0 mph 75% 0.00 in
05:09 29.3 °F 22.7 °F 30.47 in WNW 10.0 mph 12.0 mph 76% 0.00 in
05:14 29.1 °F 20.9 °F 30.47 in West 11.0 mph 16.0 mph 71% 0.00 in
05:19 28.8 °F 20.2 °F 30.48 in WNW 9.0 mph 16.0 mph 70% 0.00 in
05:24 28.6 °F 20.1 °F 30.48 in WNW 7.0 mph 15.0 mph 70% 0.00 in
05:29 28.5 °F 20.0 °F 30.49 in WNW 6.0 mph 13.0 mph 70% 0.00 in
05:34 28.3 °F 19.8 °F 30.49 in WNW 5.0 mph 12.0 mph 70% 0.00 in
05:39 28.2 °F 19.7 °F 30.49 in WNW 4.0 mph 11.0 mph 70% 0.00 in
05:44 28.1 °F 19.6 °F 30.50 in WNW 5.0 mph 12.0 mph 70% 0.00 in
05:49 28.0 °F 19.5 °F 30.50 in WNW 6.0 mph 12.0 mph 70% 0.00 in
05:54 27.9 °F 19.4 °F 30.50 in NW 7.0 mph 14.0 mph 70% 0.00 in
05:59 27.7 °F 19.2 °F 30.51 in West 7.0 mph 16.0 mph 70% 0.00 in
06:04 27.5 °F 19.0 °F 30.51 in NW 7.0 mph 10.0 mph 70% 0.00 in
06:09 27.2 °F 18.7 °F 30.51 in NNW 4.0 mph 14.0 mph 70% 0.00 in
06:14 27.0 °F 18.2 °F 30.52 in NW 7.0 mph 13.0 mph 69% 0.00 in
06:19 26.7 °F 17.9 °F 30.53 in WNW 5.0 mph 12.0 mph 69% 0.00 in
06:24 26.6 °F 17.8 °F 30.53 in WNW 6.0 mph 12.0 mph 69% 0.00 in
06:29 26.4 °F 17.9 °F 30.53 in WNW 6.0 mph 11.0 mph 70% 0.00 in
06:39 26.1 °F 17.6 °F 30.54 in West 7.0 mph 11.0 mph 70% 0.00 in
06:44 26.0 °F 17.6 °F 30.55 in WNW 6.0 mph 11.0 mph 70% 0.00 in
06:49 25.8 °F 17.7 °F 30.55 in WNW 5.0 mph 11.0 mph 71% 0.00 in
06:54 25.7 °F 17.3 °F 30.55 in WNW 6.0 mph 13.0 mph 70% 0.00 in
06:59 25.6 °F 17.5 °F 30.55 in North 6.0 mph 10.0 mph 71% 0.00 in
07:04 25.6 °F 17.5 °F 30.56 in WNW 5.0 mph 8.0 mph 71% 0.00 in
07:09 25.5 °F 17.4 °F 30.56 in WNW 4.0 mph 12.0 mph 71% 0.00 in
07:14 25.4 °F 17.3 °F 30.56 in SW 10.0 mph 11.0 mph 71% 0.00 in
07:19 25.4 °F 17.3 °F 30.56 in NW 3.0 mph 11.0 mph 71% 0.00 in
07:24 25.4 °F 17.3 °F 30.57 in West 5.0 mph 10.0 mph 71% 0.00 in
07:29 25.3 °F 17.2 °F 30.57 in WNW 7.0 mph 14.0 mph 71% 0.00 in
07:34 25.3 °F 17.2 °F 30.57 in WNW 7.0 mph 14.0 mph 71% 0.00 in
07:39 25.2 °F 16.8 °F 30.57 in WNW 5.0 mph 12.0 mph 70% 0.00 in
07:44 25.2 °F 16.5 °F 30.57 in NW 5.0 mph 15.0 mph 69% 0.00 in
07:49 25.1 °F 16.4 °F 30.58 in WNW 2.0 mph 13.0 mph 69% 0.00 in
07:54 25.1 °F 16.4 °F 30.58 in WNW 3.0 mph 10.0 mph 69% 0.00 in
07:59 25.0 °F 16.3 °F 30.58 in WNW 2.0 mph 9.0 mph 69% 0.00 in
08:04 25.0 °F 16.3 °F 30.58 in WNW 4.0 mph 11.0 mph 69% 0.00 in
08:09 24.9 °F 16.5 °F 30.60 in WNW 4.0 mph 11.0 mph 70% 0.00 in
08:14 24.9 °F 16.2 °F 30.60 in WNW 4.0 mph 10.0 mph 69% 0.00 in
08:19 25.0 °F 15.9 °F 30.61 in WNW 4.0 mph 10.0 mph 68% 0.00 in
08:24 25.0 °F 15.9 °F 30.61 in NW 3.0 mph 10.0 mph 68% 0.00 in
08:29 25.1 °F 16.0 °F 30.61 in NW 5.0 mph 10.0 mph 68% 0.00 in
08:34 25.2 °F 15.4 °F 30.62 in WNW 6.0 mph 16.0 mph 66% 0.00 in
08:39 25.4 °F 15.3 °F 30.62 in WNW 8.0 mph 16.0 mph 65% 0.00 in
08:44 25.6 °F 15.5 °F 30.63 in West 7.0 mph 14.0 mph 65% 0.00 in
08:49 25.8 °F 15.6 °F 30.63 in WNW 6.0 mph 14.0 mph 65% 0.00 in
08:54 26.2 °F 16.0 °F 30.63 in West 9.0 mph 11.0 mph 65% 0.00 in
08:59 26.5 °F 15.6 °F 30.64 in WNW 3.0 mph 10.0 mph 63% 0.00 in
09:04 26.9 °F 16.3 °F 30.64 in NW 4.0 mph 10.0 mph 64% 0.00 in
09:09 26.9 °F 16.3 °F 30.64 in WNW 5.0 mph 11.0 mph 64% 0.00 in
09:14 26.8 °F 15.9 °F 30.64 in West 6.0 mph 14.0 mph 63% 0.00 in
09:19 26.6 °F 15.7 °F 30.65 in West 7.0 mph 14.0 mph 63% 0.00 in
09:24 26.6 °F 16.1 °F 30.65 in WSW 7.0 mph 13.0 mph 64% 0.00 in
09:29 27.2 °F 16.6 °F 30.65 in WNW 6.0 mph 13.0 mph 64% 0.00 in
09:34 27.6 °F 16.3 °F 30.66 in WNW 10.0 mph 12.0 mph 62% 0.00 in
09:39 27.6 °F 16.6 °F 30.66 in WNW 7.0 mph 12.0 mph 63% 0.00 in
09:44 27.4 °F 16.8 °F 30.66 in WNW 7.0 mph 12.0 mph 64% 0.00 in
09:49 27.4 °F 17.2 °F 30.67 in WNW 6.0 mph 10.0 mph 65% 0.00 in
09:54 27.2 °F 17.0 °F 30.67 in WNW 6.0 mph 12.0 mph 65% 0.00 in
09:59 27.2 °F 17.3 °F 30.67 in WNW 13.0 mph 17.0 mph 66% 0.00 in
10:04 26.5 °F 16.7 °F 30.68 in NW 5.0 mph 14.0 mph 66% 0.00 in
10:09 26.3 °F 16.8 °F 30.68 in NW 7.0 mph 12.0 mph 67% 0.00 in
10:14 26.0 °F 15.8 °F 30.69 in NW 6.0 mph 13.0 mph 65% 0.00 in
10:19 26.1 °F 16.6 °F 30.69 in NW 6.0 mph 13.0 mph 67% 0.00 in
10:24 26.5 °F 16.3 °F 30.69 in WNW 6.0 mph 15.0 mph 65% 0.00 in
10:29 26.8 °F 16.2 °F 30.69 in WNW 6.0 mph 15.0 mph 64% 0.00 in
10:34 27.2 °F 17.0 °F 30.70 in NW 6.0 mph 12.0 mph 65% 0.00 in
10:39 27.6 °F 16.6 °F 30.69 in WNW 8.0 mph 12.0 mph 63% 0.00 in
10:44 27.7 °F 17.1 °F 30.69 in NW 6.0 mph 14.0 mph 64% 0.00 in
10:49 27.7 °F 16.7 °F 30.70 in NNW 11.0 mph 14.0 mph 63% 0.00 in
10:54 27.8 °F 16.8 °F 30.70 in NW 6.0 mph 11.0 mph 63% 0.00 in
10:59 27.9 °F 16.9 °F 30.70 in WNW 6.0 mph 10.0 mph 63% 0.00 in
11:04 27.6 °F 15.9 °F 30.70 in West 6.0 mph 11.0 mph 61% 0.00 in
11:09 27.7 °F 16.0 °F 30.70 in WSW 4.0 mph 13.0 mph 61% 0.00 in
11:14 27.8 °F 16.1 °F 30.70 in West 7.0 mph 14.0 mph 61% 0.00 in
11:19 28.0 °F 15.9 °F 30.70 in West 7.0 mph 14.0 mph 60% 0.00 in
11:24 28.4 °F 15.1 °F 30.70 in WNW 6.0 mph 12.0 mph 57% 0.00 in
11:29 28.5 °F 15.6 °F 30.70 in WNW 5.0 mph 11.0 mph 58% 0.00 in
11:34 28.5 °F 15.2 °F 30.70 in WNW 7.0 mph 12.0 mph 57% 0.00 in
11:39 28.7 °F 15.0 °F 30.70 in West 7.0 mph 12.0 mph 56% 0.00 in
11:44 28.8 °F 15.5 °F 30.70 in SW 5.0 mph 12.0 mph 57% 0.00 in
11:49 28.9 °F 15.6 °F 30.69 in NW 3.0 mph 10.0 mph 57% 0.00 in
11:54 29.3 °F 14.3 °F 30.70 in North 2.0 mph 11.0 mph 53% 0.00 in
11:59 29.1 °F 15.7 °F 30.70 in WSW 8.0 mph 13.0 mph 57% 0.00 in
12:04 29.4 °F 15.2 °F 30.70 in West 6.0 mph 12.0 mph 55% 0.00 in
12:09 29.0 °F 14.4 °F 30.69 in WNW 3.0 mph 9.0 mph 54% 0.00 in
12:14 28.8 °F 13.8 °F 30.69 in NNW 5.0 mph 10.0 mph 53% 0.00 in
12:19 29.4 °F 14.4 °F 30.69 in NW 6.0 mph 11.0 mph 53% 0.00 in
12:24 29.2 °F 14.6 °F 30.69 in WNW 6.0 mph 11.0 mph 54% 0.00 in
12:29 28.3 °F 12.5 °F 30.69 in WNW 6.0 mph 11.0 mph 51% 0.00 in
12:34 29.5 °F 15.7 °F 30.69 in NW 5.0 mph 10.0 mph 56% 0.00 in
12:39 29.0 °F 13.1 °F 30.69 in NNW 4.0 mph 10.0 mph 51% 0.00 in
12:44 29.5 °F 14.9 °F 30.69 in NNW 4.0 mph 9.0 mph 54% 0.00 in
12:49 29.8 °F 14.7 °F 30.69 in NW 5.0 mph 9.0 mph 53% 0.00 in
12:54 29.2 °F 13.7 °F 30.69 in West 3.0 mph 9.0 mph 52% 0.00 in
12:59 28.8 °F 14.2 °F 30.69 in West 3.0 mph 9.0 mph 54% 0.00 in
13:04 29.7 °F 15.9 °F 30.69 in West 8.0 mph 9.0 mph 56% 0.00 in
13:09 29.2 °F 14.6 °F 30.69 in NW 4.0 mph 9.0 mph 54% 0.00 in
13:14 29.3 °F 14.3 °F 30.69 in WSW 4.0 mph 9.0 mph 53% 0.00 in
13:19 30.3 °F 16.9 °F 30.69 in NW 6.0 mph 7.0 mph 57% 0.00 in
13:24 30.1 °F 15.4 °F 30.69 in WNW 4.0 mph 8.0 mph 54% 0.00 in
13:29 30.4 °F 15.7 °F 30.69 in WNW 4.0 mph 8.0 mph 54% 0.00 in
13:34 30.2 °F 15.5 °F 30.69 in WNW 4.0 mph 9.0 mph 54% 0.00 in
13:39 29.0 °F 14.8 °F 30.69 in WNW 5.0 mph 10.0 mph 55% 0.00 in
13:44 28.8 °F 14.6 °F 30.69 in West 5.0 mph 10.0 mph 55% 0.00 in
13:49 29.8 °F 16.8 °F 30.69 in NW 5.0 mph 6.0 mph 58% 0.00 in
13:54 30.2 °F 15.5 °F 30.69 in WNW 3.0 mph 11.0 mph 54% 0.00 in
13:59 30.2 °F 15.1 °F 30.69 in WNW 5.0 mph 12.0 mph 53% 0.00 in
14:04 30.2 °F 14.7 °F 30.69 in WNW 5.0 mph 10.0 mph 52% 0.00 in
14:09 29.8 °F 14.3 °F 30.69 in WSW 4.0 mph 11.0 mph 52% 0.00 in
14:14 29.6 °F 14.1 °F 30.70 in West 1.0 mph 7.0 mph 52% 0.00 in
14:19 29.3 °F 14.3 °F 30.69 in NNW 3.0 mph 8.0 mph 53% 0.00 in
14:24 29.5 °F 14.0 °F 30.70 in NW 6.0 mph 7.0 mph 52% 0.00 in
14:29 29.3 °F 12.9 °F 30.70 in NW 7.0 mph 9.0 mph 50% 0.00 in
14:34 29.0 °F 13.6 °F 30.70 in NW 5.0 mph 9.0 mph 52% 0.00 in
14:39 29.1 °F 14.5 °F 30.70 in NW 4.0 mph 8.0 mph 54% 0.00 in
14:44 29.1 °F 14.9 °F 30.70 in NW 3.0 mph 8.0 mph 55% 0.00 in
14:49 29.2 °F 14.6 °F 30.71 in NNW 3.0 mph 9.0 mph 54% 0.00 in
14:54 29.1 °F 14.1 °F 30.71 in NNW 3.0 mph 9.0 mph 53% 0.00 in
14:59 29.0 °F 14.8 °F 30.71 in NW 4.0 mph 8.0 mph 55% 0.00 in
15:04 28.5 °F 13.9 °F 30.71 in NNW 4.0 mph 8.0 mph 54% 0.00 in
15:09 28.2 °F 14.5 °F 30.71 in NW 5.0 mph 9.0 mph 56% 0.00 in
15:14 28.0 °F 14.3 °F 30.72 in NNW 4.0 mph 8.0 mph 56% 0.00 in
15:19 28.1 °F 14.4 °F 30.72 in NNW 5.0 mph 8.0 mph 56% 0.00 in
15:24 27.8 °F 14.5 °F 30.72 in NW 6.0 mph 8.0 mph 57% 0.00 in
15:29 27.7 °F 14.0 °F 30.73 in NNW 9.0 mph 9.0 mph 56% 0.00 in
15:34 27.5 °F 13.0 °F 30.73 in North 3.0 mph 12.0 mph 54% 0.00 in
15:39 27.2 °F 13.1 °F 30.73 in NNW 5.0 mph 12.0 mph 55% 0.00 in
15:44 27.0 °F 12.5 °F 30.73 in NW 4.0 mph 10.0 mph 54% 0.00 in
15:49 26.9 °F 11.6 °F 30.74 in NNW 5.0 mph 10.0 mph 52% 0.00 in
15:54 26.9 °F 12.0 °F 30.74 in NW 4.0 mph 8.0 mph 53% 0.00 in
15:59 26.7 °F 12.3 °F 30.74 in NW 4.0 mph 8.0 mph 54% 0.00 in
16:04 26.6 °F 12.2 °F 30.74 in NNW 4.0 mph 8.0 mph 54% 0.00 in
16:09 26.6 °F 12.6 °F 30.75 in NW 3.0 mph 8.0 mph 55% 0.00 in
16:14 26.5 °F 12.5 °F 30.74 in NNW 3.0 mph 7.0 mph 55% 0.00 in
16:19 26.4 °F 12.8 °F 30.75 in NNW 1.0 mph 7.0 mph 56% 0.00 in
16:24 26.3 °F 12.7 °F 30.75 in NNW 2.0 mph 6.0 mph 56% 0.00 in
16:29 26.3 °F 13.1 °F 30.75 in WNW 2.0 mph 7.0 mph 57% 0.00 in
16:34 26.2 °F 12.6 °F 30.75 in WNW 5.0 mph 7.0 mph 56% 0.00 in
16:39 26.1 °F 12.5 °F 30.75 in West 3.0 mph 7.0 mph 56% 0.00 in
16:44 26.0 °F 12.4 °F 30.75 in WNW 4.0 mph 5.0 mph 56% 0.00 in
16:49 25.9 °F 12.3 °F 30.75 in West 4.0 mph 8.0 mph 56% 0.00 in
16:54 25.8 °F 12.6 °F 30.75 in NW 6.0 mph 7.0 mph 57% 0.00 in
16:59 25.7 °F 12.6 °F 30.76 in West 3.0 mph 7.0 mph 57% 0.00 in
17:04 25.7 °F 12.9 °F 30.76 in NW 3.0 mph 6.0 mph 58% 0.00 in
17:09 25.6 °F 12.9 °F 30.76 in Calm   5.0 mph 58% 0.00 in
17:14 25.6 °F 12.9 °F 30.76 in WNW 2.0 mph 5.0 mph 58% 0.00 in
17:19 25.5 °F 13.1 °F 30.76 in NW 2.0 mph 5.0 mph 59% 0.00 in
17:24 25.4 °F 12.7 °F 30.76 in WNW 4.0 mph 4.0 mph 58% 0.00 in
17:29 25.4 °F 13.1 °F 30.76 in West 2.0 mph 6.0 mph 59% 0.00 in
17:34 25.4 °F 13.4 °F 30.77 in WNW 1.0 mph 6.0 mph 60% 0.00 in
17:39 25.4 °F 13.1 °F 30.77 in NNW 3.0 mph 8.0 mph 59% 0.00 in
17:44 25.4 °F 13.1 °F 30.77 in NW 1.0 mph 5.0 mph 59% 0.00 in
17:49 25.4 °F 13.1 °F 30.77 in NW 2.0 mph 6.0 mph 59% 0.00 in
17:54 25.4 °F 13.4 °F 30.77 in NW 2.0 mph 6.0 mph 60% 0.00 in
17:59 25.4 °F 13.4 °F 30.77 in West 1.0 mph 8.0 mph 60% 0.00 in
18:04 25.4 °F 13.4 °F 30.77 in WNW 4.0 mph 6.0 mph 60% 0.00 in
18:09 25.5 °F 13.1 °F 30.78 in WNW 1.0 mph 5.0 mph 59% 0.00 in
18:14 25.6 °F 13.2 °F 30.78 in West 2.0 mph 5.0 mph 59% 0.00 in
18:19 25.6 °F 13.6 °F 30.78 in West 3.0 mph 6.0 mph 60% 0.00 in
18:24 25.6 °F 13.2 °F 30.78 in West 3.0 mph 7.0 mph 59% 0.00 in
18:29 25.7 °F 13.3 °F 30.78 in West 3.0 mph 7.0 mph 59% 0.00 in
18:34 25.7 °F 13.3 °F 30.78 in West 3.0 mph 6.0 mph 59% 0.00 in
18:39 25.7 °F 13.7 °F 30.78 in West 4.0 mph 6.0 mph 60% 0.00 in
18:44 25.8 °F 13.8 °F 30.78 in West 2.0 mph 6.0 mph 60% 0.00 in
18:49 25.8 °F 14.2 °F 30.78 in West 3.0 mph 6.0 mph 61% 0.00 in
18:54 25.8 °F 13.8 °F 30.78 in WNW 3.0 mph 6.0 mph 60% 0.00 in
18:59 25.8 °F 13.8 °F 30.78 in WNW 3.0 mph 6.0 mph 60% 0.00 in
19:04 25.8 °F 13.8 °F 30.78 in West 3.0 mph 5.0 mph 60% 0.00 in
19:09 25.8 °F 13.8 °F 30.78 in West 2.0 mph 5.0 mph 60% 0.00 in
19:14 25.8 °F 13.8 °F 30.78 in WNW 3.0 mph 7.0 mph 60% 0.00 in
19:19 25.7 °F 14.1 °F 30.78 in WNW 3.0 mph 6.0 mph 61% 0.00 in
19:24 25.8 °F 14.2 °F 30.78 in West 3.0 mph 6.0 mph 61% 0.00 in
19:29 25.8 °F 14.2 °F 30.78 in West 3.0 mph 5.0 mph 61% 0.00 in
19:34 25.7 °F 14.1 °F 30.78 in West 3.0 mph 5.0 mph 61% 0.00 in
19:39 25.6 °F 14.0 °F 30.78 in West 3.0 mph 7.0 mph 61% 0.00 in
19:44 25.7 °F 14.1 °F 30.78 in WNW 2.0 mph 4.0 mph 61% 0.00 in
19:49 25.6 °F 14.4 °F 30.78 in NW 1.0 mph 4.0 mph 62% 0.00 in
19:54 25.4 °F 14.5 °F 30.78 in West 2.0 mph 4.0 mph 63% 0.00 in
19:59 25.2 °F 14.4 °F 30.78 in WNW 1.0 mph 5.0 mph 63% 0.00 in
20:04 25.1 °F 14.3 °F 30.78 in NW 2.0 mph 5.0 mph 63% 0.00 in
20:09 25.0 °F 14.5 °F 30.78 in NW 2.0 mph 4.0 mph 64% 0.00 in
20:14 24.9 °F 14.4 °F 30.78 in NW 1.0 mph 5.0 mph 64% 0.00 in
20:19 24.9 °F 14.8 °F 30.78 in NNW 2.0 mph 3.0 mph 65% 0.00 in
20:24 24.8 °F 14.7 °F 30.78 in NW 2.0 mph 4.0 mph 65% 0.00 in
20:29 24.8 °F 14.7 °F 30.78 in NE 4.0 mph 4.0 mph 65% 0.00 in
20:34 24.9 °F 17.5 °F 30.79 in North 3.0 mph 7.0 mph 73% 0.00 in
20:39 24.7 °F 17.9 °F 30.79 in NNE 4.0 mph 7.0 mph 75% 0.00 in
20:44 24.6 °F 18.1 °F 30.79 in NNE 3.0 mph 6.0 mph 76% 0.00 in
20:49 24.5 °F 18.0 °F 30.79 in NE 5.0 mph 8.0 mph 76% 0.00 in
20:54 24.4 °F 18.2 °F 30.79 in North 1.0 mph 7.0 mph 77% 0.00 in
20:59 24.3 °F 18.1 °F 30.79 in NE 4.0 mph 8.0 mph 77% 0.00 in
21:04 24.3 °F 18.1 °F 30.78 in NE 3.0 mph 8.0 mph 77% 0.00 in
21:09 24.3 °F 18.1 °F 30.78 in NE 3.0 mph 7.0 mph 77% 0.00 in
21:14 24.2 °F 18.3 °F 30.79 in NNE 2.0 mph 5.0 mph 78% 0.00 in
21:19 24.1 °F 18.2 °F 30.78 in NNE 3.0 mph 5.0 mph 78% 0.00 in
21:24 24.0 °F 18.1 °F 30.79 in North 3.0 mph 5.0 mph 78% 0.00 in
21:29 24.0 °F 18.1 °F 30.79 in NNE 3.0 mph 7.0 mph 78% 0.00 in
21:34 23.9 °F 18.3 °F 30.78 in NNE 1.0 mph 7.0 mph 79% 0.00 in
21:39 23.9 °F 18.3 °F 30.79 in NNE 3.0 mph 6.0 mph 79% 0.00 in
21:44 23.8 °F 18.5 °F 30.79 in NE 3.0 mph 5.0 mph 80% 0.00 in
21:49 23.7 °F 18.1 °F 30.79 in NNE 3.0 mph 7.0 mph 79% 0.00 in
21:54 23.6 °F 18.0 °F 30.78 in NE 2.0 mph 4.0 mph 79% 0.00 in
21:59 23.5 °F 17.6 °F 30.78 in NE 4.0 mph 7.0 mph 78% 0.00 in
22:04 23.3 °F 17.2 °F 30.78 in NNE 4.0 mph 7.0 mph 77% 0.00 in
22:09 23.2 °F 17.1 °F 30.78 in NNE 3.0 mph 6.0 mph 77% 0.00 in
22:14 23.1 °F 17.0 °F 30.78 in NNE 4.0 mph 8.0 mph 77% 0.00 in
22:19 23.1 °F 17.0 °F 30.78 in NNE 2.0 mph 6.0 mph 77% 0.00 in
22:24 23.0 °F 16.9 °F 30.78 in NNE 4.0 mph 10.0 mph 77% 0.00 in
22:29 23.0 °F 16.9 °F 30.78 in NE 3.0 mph 10.0 mph 77% 0.00 in
22:34 23.0 °F 17.2 °F 30.77 in NE 4.0 mph 8.0 mph 78% 0.00 in
22:39 22.9 °F 16.8 °F 30.77 in NE 5.0 mph 11.0 mph 77% 0.00 in
22:44 22.9 °F 16.8 °F 30.77 in NE 4.0 mph 11.0 mph 77% 0.00 in
22:49 22.7 °F 16.6 °F 30.77 in NE 4.0 mph 8.0 mph 77% 0.00 in
22:54 22.6 °F 16.5 °F 30.77 in NE 4.0 mph 9.0 mph 77% 0.00 in
22:59 22.5 °F 16.1 °F 30.77 in ENE 5.0 mph 9.0 mph 76% 0.00 in
23:04 22.5 °F 16.1 °F 30.76 in NE 6.0 mph 9.0 mph 76% 0.00 in
23:09 22.4 °F 16.0 °F 30.76 in NNE 5.0 mph 8.0 mph 76% 0.00 in
23:14 22.4 °F 16.0 °F 30.76 in NE 4.0 mph 9.0 mph 76% 0.00 in
23:19 22.4 °F 16.3 °F 30.76 in NE 3.0 mph 7.0 mph 77% 0.00 in
23:24 22.4 °F 16.3 °F 30.76 in NE 2.0 mph 9.0 mph 77% 0.00 in
23:29 22.5 °F 16.1 °F 30.76 in NE 4.0 mph 10.0 mph 76% 0.00 in
23:34 22.5 °F 16.1 °F 30.76 in East 3.0 mph 5.0 mph 76% 0.00 in
23:39 22.5 °F 16.1 °F 30.76 in NE 6.0 mph 9.0 mph 76% 0.00 in
23:44 22.5 °F 16.4 °F 30.76 in NE 4.0 mph 9.0 mph 77% 0.00 in
23:49 22.5 °F 16.4 °F 30.76 in NE 4.0 mph 9.0 mph 77% 0.00 in
23:54 22.4 °F 16.3 °F 30.76 in NE 5.0 mph 9.0 mph 77% 0.00 in
23:59 22.3 °F 16.2 °F 30.76 in NE 5.0 mph 9.0 mph 77% 0.00 in
Buffalo, New York, USA
Compliments of Weather Underground - 2.5 mb